Location: Deerlick Astronomy Village
(33.5614°N, 82.7631°W)
Time: 17:35:02
(UTC-05:00)

CAS-4A - Pass Details

Date: 02 November 2020
Orbit: 528 x 544 km, 43.0° (Epoch: 30 November)

Event Time Altitude Azimuth Distance (km) Brightness Sun altitude
Exits shadow 05:13:08 41° 344° (NNW) 780 ? -20.9°
Maximum altitude 05:14:00 49° 24° (NNE) 689 ? -20.7°
Drops below altitude 10° 05:17:56 10° 100° (E) 1,767 ? -19.9°
Sets 05:20:13 0° 106° (ESE) 2,652 ? -19.4°
